Terminal Aerodrome Forecast
Issued by NWS Memphis, TN

Home | Current Version | Previous Version | Text Only | Print | Product List | Glossary On
Versions: 1 2 3 4 5 6 7 8 9 10 11 12 13 14 15 16 17 18 19 20 21 22 23 24 25 26 27 28 29 30 31 32
000
FTUS44 KMEG 090528
TAFMEM
TAF
KMEM 090528Z 0906/1006 34008KT P6SM FEW250
     FM091800 36005KT P6SM BKN250
     FM100000 04004KT P6SM SKC=

USA.gov is the U.S. government's official web portal to all federal, state and local government web resources and services.